This is the latest recevied weather packets stored in our database for station/object KA1AL. If no packets are shown the sender has not sent any weather packets the latest 10 day(s).
| Time | Temp. | Humidity | Pressure | Rain* | Wind** | Luminosity | Snow |
|---|---|---|---|---|---|---|---|
| 1777817203 | 3.89° C | 99% | 1005.1 hPa | 0 mm | - | 118 W/m² | - |
| 1777816901 | 3.89° C | 99% | 1005.1 hPa | 0 mm | - | 115 W/m² | - |
| 1777816598 | 3.89° C | 99% | 1005.5 hPa | 1.27 mm | - | 125 W/m² | - |
| 1777816295 | 3.33° C | 99% | 1005.4 hPa | 1.27 mm | - | 109 W/m² | - |
| 1777815992 | 3.33° C | 99% | 1005.6 hPa | 0 mm | - | 127 W/m² | - |
| 1777815690 | 3.33° C | 99% | 1005.5 hPa | 1.78 mm | - | 109 W/m² | - |
| 1777815387 | 3.89° C | 99% | 1005.4 hPa | 1.78 mm | - | 91 W/m² | - |
| 1777815084 | 3.33° C | 99% | 1005.7 hPa | 0 mm | - | 94 W/m² | - |
| 1777814780 | 3.33° C | 99% | 1005.6 hPa | 1.27 mm | - | 104 W/m² | - |
| 1777814477 | 3.89° C | 99% | 1005.7 hPa | 1.27 mm | - | 98 W/m² | - |
| 1777814174 | 3.89° C | 99% | 1005.7 hPa | 0 mm | - | 94 W/m² | - |
| 1777813871 | 3.89° C | 99% | 1005.8 hPa | 0 mm | - | 81 W/m² | - |
| 1777813568 | 3.89° C | 99% | 1006 hPa | 1.78 mm | - | 79 W/m² | - |
| 1777813266 | 3.89° C | 99% | 1006.2 hPa | 1.78 mm | - | 75 W/m² | - |
| 1777812963 | 3.89° C | 99% | 1006 hPa | 0 mm | - | 79 W/m² | - |
| 1777812660 | 3.89° C | 99% | 1006 hPa | 1.27 mm | - | 75 W/m² | - |
| 1777812356 | 3.33° C | 99% | 1006.2 hPa | 1.27 mm | - | 64 W/m² | - |
| 1777812055 | 3.33° C | 99% | 1006.2 hPa | 1.78 mm | - | 40 W/m² | - |
| 1777811753 | 3.89° C | 99% | 1006 hPa | 3.05 mm | - | 41 W/m² | - |
| 1777811449 | 3.33° C | 99% | 1006.4 hPa | 1.27 mm | - | 36 W/m² | - |
| 1777811146 | 3.89° C | 99% | 1006.2 hPa | 1.27 mm | - | 44 W/m² | - |
| 1777810843 | 3.89° C | 99% | 1006.2 hPa | 1.78 mm | - | 42 W/m² | - |
| 1777810540 | 3.89° C | 99% | 1006.2 hPa | 1.78 mm | - | 42 W/m² | - |
| 1777810237 | 3.89° C | 99% | 1006.5 hPa | 1.78 mm | - | 53 W/m² | - |
| 1777809933 | 3.89° C | 99% | 1006.4 hPa | 1.78 mm | - | 52 W/m² | - |
* Rain latest hour (hover to see other rain measurements)
** Current wind speed in m/s (hover to see current wind gust speed)